Torna al catalogo

CZ-4 DEB

AttivoSSO
NORAD 26300·DEBRIS·🇨🇳 China

Lanciato Oct 14, 1999 da Taiyuan Satellite Launch Center

Loading…

Prossimi Passaggi (prossime 24 ore)

TLE

AggiornatoSource: Space-Track

Epoca: Sep 14, 2026, 11:09 UTC

1 26300U 99057GL  26257.46511693  .00002143  00000-0  35699-3 0  9993
2 26300  98.3495 329.6152 0057125 325.4214  46.8329 14.70068806399249

Traccia CZ-4 DEB in tempo reale con AllMySat

Download on the App Store